TimeCDT,TemperatureF,Dew PointF,Humidity,Sea Level PressureIn,VisibilityMPH,Wind Direction,Wind SpeedMPH,Gust SpeedMPH,PrecipitationIn,Events,Conditions,WindDirDegrees,DateUTC
12:35 AM,71.6,66.2,83,30.07,10.0,Calm,Calm,-,N/A,,Clear,0,2013-05-24 05:35:00
12:55 AM,69.8,66.2,88,30.07,10.0,North,3.5,-,N/A,,Clear,10,2013-05-24 05:55:00
1:15 AM,69.8,66.2,88,30.07,10.0,NNE,3.5,-,N/A,,Clear,20,2013-05-24 06:15:00
1:35 AM,68.0,66.2,94,30.06,1.5,Calm,Calm,-,N/A,,Clear,0,2013-05-24 06:35:00
1:55 AM,69.8,66.2,88,30.05,3.0,Calm,Calm,-,N/A,,Clear,0,2013-05-24 06:55:00
2:15 AM,66.2,66.2,100,30.06,8.0,North,4.6,-,N/A,,Clear,10,2013-05-24 07:15:00
2:35 AM,68.0,66.2,94,30.06,10.0,Calm,Calm,-,N/A,,Clear,0,2013-05-24 07:35:00
2:55 AM,68.0,64.4,88,30.06,10.0,Calm,Calm,-,N/A,,Clear,0,2013-05-24 07:55:00
3:15 AM,68.0,64.4,88,30.07,10.0,Calm,Calm,-,N/A,,Clear,0,2013-05-24 08:15:00
3:35 AM,66.2,64.4,94,30.06,10.0,Calm,Calm,-,N/A,,Clear,0,2013-05-24 08:35:00
3:55 AM,66.2,64.4,94,30.06,10.0,Calm,Calm,-,N/A,,Clear,0,2013-05-24 08:55:00
4:15 AM,66.2,64.4,94,30.06,9.0,Calm,Calm,-,N/A,,Clear,0,2013-05-24 09:15:00
4:35 AM,66.2,64.4,94,30.06,9.0,Calm,Calm,-,N/A,,Clear,0,2013-05-24 09:35:00
4:55 AM,66.2,64.4,94,30.07,7.0,Calm,Calm,-,N/A,,Partly Cloudy,0,2013-05-24 09:55:00
5:15 AM,66.2,64.4,94,30.08,10.0,Calm,Calm,-,N/A,,Scattered Clouds,0,2013-05-24 10:15:00
5:35 AM,66.2,64.4,94,30.09,10.0,Calm,Calm,-,N/A,,Mostly Cloudy,0,2013-05-24 10:35:00
5:55 AM,66.2,64.4,94,30.09,10.0,Calm,Calm,-,N/A,,Partly Cloudy,0,2013-05-24 10:55:00
6:15 AM,66.2,64.4,94,30.10,9.0,Calm,Calm,-,N/A,,Clear,0,2013-05-24 11:15:00
6:35 AM,66.2,64.4,94,30.11,10.0,Calm,Calm,-,N/A,,Clear,0,2013-05-24 11:35:00
6:55 AM,68.0,64.4,88,30.12,8.0,Calm,Calm,-,N/A,,Clear,0,2013-05-24 11:55:00
7:15 AM,68.0,66.2,94,30.13,9.0,Calm,Calm,-,N/A,,Scattered Clouds,0,2013-05-24 12:15:00
7:35 AM,69.8,66.2,88,30.14,10.0,Calm,Calm,-,N/A,,Overcast,0,2013-05-24 12:35:00
7:55 AM,69.8,66.2,88,30.14,10.0,East,4.6,-,N/A,,Overcast,100,2013-05-24 12:55:00
8:15 AM,71.6,68.0,88,30.15,10.0,ENE,8.1,-,N/A,,Overcast,60,2013-05-24 13:15:00
8:35 AM,73.4,69.8,88,30.15,10.0,East,5.8,-,N/A,,Mostly Cloudy,80,2013-05-24 13:35:00
8:55 AM,77.0,66.2,69,30.16,10.0,East,9.2,-,N/A,,Clear,90,2013-05-24 13:55:00
9:15 AM,77.0,68.0,74,30.16,10.0,East,6.9,-,N/A,,Clear,80,2013-05-24 14:15:00
9:35 AM,78.8,68.0,69,30.16,10.0,East,8.1,-,N/A,,Clear,90,2013-05-24 14:35:00
9:55 AM,78.8,68.0,69,30.17,10.0,ENE,4.6,-,N/A,,Clear,70,2013-05-24 14:55:00
10:15 AM,78.8,68.0,69,30.18,10.0,East,5.8,-,N/A,,Clear,90,2013-05-24 15:15:00
10:35 AM,80.6,69.8,70,30.18,10.0,NNE,3.5,-,N/A,,Clear,30,2013-05-24 15:35:00
10:55 AM,80.6,69.8,70,30.18,0.8,NE,8.1,-,N/A,,Mostly Cloudy,40,2013-05-24 15:55:00
11:15 AM,80.6,69.8,70,30.18,2.5,ENE,6.9,-,N/A,,Partly Cloudy,60,2013-05-24 16:15:00
11:35 AM,80.6,69.8,70,30.18,2.0,East,6.9,-,N/A,,Scattered Clouds,80,2013-05-24 16:35:00
11:55 AM,82.4,69.8,66,30.19,3.0,East,9.2,-,N/A,,Scattered Clouds,90,2013-05-24 16:55:00
12:15 PM,82.4,69.8,66,30.19,2.5,NE,5.8,-,N/A,,Mostly Cloudy,40,2013-05-24 17:15:00
12:35 PM,80.6,69.8,70,30.19,10.0,East,5.8,-,N/A,,Overcast,80,2013-05-24 17:35:00
12:55 PM,80.6,69.8,70,30.19,10.0,NE,9.2,-,N/A,,Overcast,50,2013-05-24 17:55:00
1:16 PM,80.6,69.8,70,30.19,10.0,ENE,9.2,-,N/A,,Overcast,70,2013-05-24 18:16:00
1:35 PM,82.4,69.8,66,30.19,10.0,NE,9.2,-,N/A,,Overcast,40,2013-05-24 18:35:00
1:55 PM,82.4,68.0,62,30.19,10.0,ENE,6.9,-,N/A,,Overcast,60,2013-05-24 18:55:00
2:15 PM,80.6,69.8,70,30.18,10.0,ENE,8.1,-,N/A,,Mostly Cloudy,60,2013-05-24 19:15:00
2:35 PM,82.4,68.0,62,30.18,10.0,ENE,6.9,-,N/A,,Partly Cloudy,60,2013-05-24 19:35:00
2:55 PM,82.4,68.0,62,30.18,10.0,NE,10.4,-,N/A,,Mostly Cloudy,40,2013-05-24 19:55:00
3:15 PM,80.6,66.2,61,30.17,10.0,East,8.1,-,N/A,,Mostly Cloudy,80,2013-05-24 20:15:00
3:35 PM,82.4,69.8,66,30.16,10.0,NE,12.7,17.3,N/A,,Scattered Clouds,40,2013-05-24 20:35:00
3:55 PM,82.4,69.8,66,30.16,10.0,ENE,6.9,-,N/A,,Partly Cloudy,60,2013-05-24 20:55:00
4:15 PM,82.4,69.8,66,30.15,10.0,NNE,9.2,-,N/A,,Scattered Clouds,30,2013-05-24 21:15:00
4:35 PM,82.4,68.0,62,30.14,10.0,NE,8.1,-,N/A,,Scattered Clouds,40,2013-05-24 21:35:00
4:55 PM,82.4,69.8,66,30.14,10.0,NNE,9.2,-,N/A,,Partly Cloudy,30,2013-05-24 21:55:00
5:15 PM,82.4,69.8,66,30.14,10.0,ENE,9.2,-,N/A,,Clear,60,2013-05-24 22:15:00
5:35 PM,82.4,68.0,62,30.13,10.0,NE,8.1,-,N/A,,Clear,50,2013-05-24 22:35:00
5:56 PM,82.4,68.0,62,30.13,10.0,ENE,9.2,-,N/A,,Clear,60,2013-05-24 22:56:00
6:15 PM,80.6,66.2,61,30.13,10.0,NE,8.1,-,N/A,,Clear,40,2013-05-24 23:15:00
6:35 PM,80.6,66.2,61,30.13,10.0,NE,6.9,-,N/A,,Clear,50,2013-05-24 23:35:00
6:55 PM,78.8,66.2,65,30.13,10.0,NE,5.8,-,N/A,,Clear,40,2013-05-24 23:55:00
7:15 PM,78.8,66.2,65,30.14,10.0,NE,4.6,-,N/A,,Clear,40,2013-05-25 00:15:00
7:35 PM,77.0,68.0,74,30.14,10.0,NNE,5.8,-,N/A,,Clear,20,2013-05-25 00:35:00
7:55 PM,75.2,68.0,78,30.14,10.0,NE,3.5,-,N/A,,Clear,40,2013-05-25 00:55:00
8:15 PM,75.2,66.2,73,30.15,10.0,NE,3.5,-,N/A,,Clear,40,2013-05-25 01:15:00
8:35 PM,73.4,66.2,78,30.15,10.0,NE,4.6,-,N/A,,Clear,40,2013-05-25 01:35:00
8:55 PM,73.4,68.0,83,30.15,10.0,NE,3.5,-,N/A,,Clear,40,2013-05-25 01:55:00
9:15 PM,71.6,68.0,88,30.16,10.0,Calm,Calm,-,N/A,,Clear,0,2013-05-25 02:15:00
9:35 PM,71.6,68.0,88,30.16,10.0,Calm,Calm,-,N/A,,Clear,0,2013-05-25 02:35:00
9:55 PM,71.6,66.2,83,30.17,10.0,Calm,Calm,-,N/A,,Clear,0,2013-05-25 02:55:00
10:15 PM,69.8,66.2,88,30.16,10.0,Calm,Calm,-,N/A,,Clear,0,2013-05-25 03:15:00
10:35 PM,69.8,66.2,88,30.17,10.0,Calm,Calm,-,N/A,,Clear,0,2013-05-25 03:35:00
10:55 PM,69.8,66.2,88,30.17,10.0,Calm,Calm,-,N/A,,Clear,0,2013-05-25 03:55:00
11:15 PM,69.8,66.2,88,30.18,10.0,NE,4.6,-,N/A,,Clear,50,2013-05-25 04:15:00
11:35 PM,69.8,66.2,88,30.17,10.0,ENE,4.6,-,N/A,,Clear,60,2013-05-25 04:35:00
11:55 PM,69.8,66.2,88,30.17,10.0,ENE,3.5,-,N/A,,Clear,60,2013-05-25 04:55:00